SAUDISAT 1C (SO-50) 1 27607U 02058C 26257.29580827 .00000780 00000+0 10940-3 0 9991 2 27607 64.5515 213.2481 0072027 246.1134 113.2415 14.83210726277670 SAUDISAT 2 1 28371U 04025F 26257.25510335 .00000180 00000+0 51167-4 0 9990 2 28371 98.5565 259.5645 0025230 25.7979 334.4470 14.56725584178714 SAUDISAT 3 1 31118U 07012B 26257.81608320 .00000201 00000+0 40616-4 0 9997 2 31118 98.1543 208.3120 0013537 305.9033 54.0917 14.71470360 40928 PISAT 1 41784U 16059B 26257.71134436 .00000691 00000+0 12496-3 0 9996 2 41784 97.8246 254.3525 0027492 280.2223 79.5883 14.69124467532881 FLYING LAPTOP 1 42831U 17042G 26257.95872731 .00001893 00000+0 15010-3 0 9996 2 42831 97.5008 50.2774 0016397 173.7580 186.3852 15.01590727499924 SALSAT 1 46495U 20068K 26257.26571775 .00005740 00000+0 19484-3 0 9990 2 46495 97.8883 265.8489 0009220 1.1573 358.9687 15.30910957328981